Wind_Speed
10 9 10 10 11 12 12 13 14 14 15 16 17 18 20 23 21 20 11 7 10 15 13 12 8 14 12 19 19 20 2 5 6 10 9 18 8 21 16 18 12 7 18 25 31
11 11 11 12 12 13 13 14 15 15 17 17 19 20 20 23 24 18 6 5 9 18 16 13 14 14 16 17 16 4 3 6 5 8 4 9 20 14 9 13 13 26 28 35 28
13 13 13 13 13 14 14 15 16 17 19 21 20 21 20 20 18 3 4 10 17 19 16 11 10 16 20 23 21 9 8 5 15 8 7 12 13 12 23 4 13 30 34 33 29
14 14 14 15 15 16 16 17 18 19 21 22 23 23 22 14 4 7 15 16 17 17 11 9 11 16 7 6 22 5 18 10 15 4 7 1 14 8 8 10 24 27 33 33 31
16 17 16 16 17 17 17 19 20 20 22 23 24 25 24 9 17 12 15 20 15 8 12 12 13 16 6 10 16 4 7 8 19 2 4 10 4 13 21 33 27 28 28 30 29
19 17 17 18 18 18 19 20 22 22 23 24 25 24 20 7 11 10 14 19 15 12 12 12 15 9 10 11 7 17 17 13 14 10 6 4 10 12 20 32 33 31 26 25 25
17 18 18 19 20 20 21 21 20 21 22 23 23 23 23 27 18 16 14 17 16 13 12 11 11 4 11 8 11 15 9 8 11 14 5 12 6 10 34 33 32 28 27 26 24
12 15 13 13 13 18 19 20 22 23 23 21 21 21 18 23 18 20 18 15 12 13 13 12 11 11 11 12 10 7 7 5 8 11 18 11 11 10 35 35 32 31 28 24 22
21 19 20 19 23 23 19 20 24 24 23 22 21 7 18 8 11 6 4 11 7 4 10 8 10 8 10 3 5 5 6 9 11 18 10 11 5 9 36 32 29 32 30 28 24
11 12 15 19 20 21 23 22 18 24 23 13 15 6 16 14 10 5 5 7 4 7 8 10 7 3 3 3 7 6 8 10 14 13 13 14 10 14 34 31 30 35 33 32 31
12 12 14 16 17 19 23 20 10 6 3 10 7 11 20 13 9 10 11 10 9 10 6 14 3 6 10 11 12 12 15 14 12 14 10 14 16 17 28 26 25 30 37 36 34
10 11 11 12 14 14 16 12 9 12 13 19 28 30 33 33 28 28 15 14 12 8 9 6 12 12 13 12 10 10 12 16 9 11 9 7 8 17 20 27 37 38 35 39 38
10 10 10 10 10 11 12 13 14 10 9 19 31 29 44 30 36 36 28 25 14 10 12 12 11 11 13 11 7 7 8 8 7 14 15 8 6 8 20 26 27 31 38 39 44
14 12 10 7 12 7 11 17 9 2 4 7 8 11 26 27 13 34 38 30 16 18 17 14 18 18 18 14 8 10 8 9 7 7 9 5 11 8 6 21 21 30 36 39 45
14 13 11 10 7 6 6 3 1 3 6 8 6 3 3 19 7 4 28 31 23 22 13 14 9 11 15 17 16 15 9 11 4 6 6 8 5 6 13 16 18 23 33 41 47
14 13 13 9 14 10 6 5 4 1 8 6 7 3 4 20 13 9 2 23 27 15 19 22 29 18 15 16 12 6 7 4 4 2 12 5 6 7 13 13 24 27 29 40 46
16 15 14 16 10 13 8 2 1 5 7 6 3 14 17 5 5 6 9 5 5 5 12 18 23 23 23 22 15 5 3 2 3 3 9 13 9 16 7 11 13 23 30 39 49
12 16 16 20 15 9 9 2 9 8 15 19 18 19 6 12 14 10 5 9 8 12 10 11 14 19 14 25 16 16 8 6 7 6 4 9 7 8 4 7 21 40 41 44 48
11 12 17 19 18 12 5 7 7 9 7 8 17 12 10 6 10 10 5 6 8 8 6 9 21 15 13 19 19 9 18 9 13 14 3 4 6 5 4 5 9 17 31 40 46
9 8 18 12 19 15 3 15 8 11 15 14 10 7 16 15 11 11 4 8 10 14 14 6 14 9 20 19 15 20 12 7 5 12 13 12 5 7 2 4 3 5 21 26 36
7 4 3 13 17 10 9 9 10 20 21 7 10 13 17 14 11 12 6 10 4 8 14 9 5 5 8 7 5 5 13 5 3 6 12 4 6 6 4 8 9 7 21 30 34
5 2 6 21 8 5 10 6 8 20 20 12 12 13 16 16 15 9 11 9 17 8 9 1 4 6 9 14 17 5 4 3 4 7 3 9 14 5 6 9 11 13 27 33 39
4 5 6 15 4 7 5 12 16 18 14 8 10 12 15 18 16 13 16 17 16 4 4 3 2 5 8 2 4 5 7 11 6 2 12 12 11 2 7 7 8 15 24 32 34
3 2 2 6 6 1 2 7 6 11 14 18 16 18 17 17 15 12 18 9 12 16 9 3 4 6 5 11 13 8 17 18 9 2 5 7 13 16 14 14 5 17 29 37 36
5 4 2 3 5 5 6 4 9 8 7 4 5 8 11 8 12 16 16 19 16 17 7 4 6 11 15 18 17 17 16 16 8 12 6 9 9 23 11 10 17 19 22 28 33
4 3 2 11 12 6 10 8 16 18 14 17 13 14 12 11 10 18 14 11 10 6 5 3 4 3 6 17 23 18 14 15 16 18 22 17 19 21 24 27 22 21 26 25 30
11 12 7 6 3 3 9 9 10 14 20 21 16 12 14 14 17 17 17 23 15 12 17 8 3 4 15 16 12 10 14 19 22 21 19 17 20 20 15 15 21 21 26 29 30
Wind_Direction
266 274 282 285 293 298 304 309 314 317 321 323 326 330 333 328 324 320 303 270 308 328 317 308 320 344 303 279 275 280 353 276 282 288 203 144 109 82 102 98 73 77 147 162 151
268 272 275 280 285 291 298 305 310 315 317 321 325 327 332 332 329 324 274 249 307 329 318 311 314 334 317 298 293 180 199 250 269 308 10 111 110 116 98 86 82 94 119 141 143
272 272 275 280 285 289 294 300 305 309 314 319 323 324 329 337 327 14 6 315 316 324 323 304 314 303 287 290 282 250 239 256 293 340 347 147 131 128 128 131 168 146 142 145 151
274 273 277 280 285 291 294 298 303 309 312 318 320 323 325 339 321 308 313 309 308 316 310 331 313 294 287 269 283 269 258 264 288 24 360 297 149 70 116 180 163 153 148 148 161
272 276 277 281 283 288 292 296 300 305 310 313 319 323 328 321 284 320 317 317 321 323 311 305 301 297 289 309 327 301 255 285 297 188 300 329 48 115 108 134 143 144 155 163 160
268 276 282 287 287 289 295 299 302 305 307 310 314 318 321 278 297 278 313 307 316 301 281 290 311 306 308 287 293 297 301 310 309 286 190 272 136 105 133 137 141 154 159 165 167
251 257 267 279 286 295 298 303 309 311 312 311 308 315 305 276 297 273 270 283 277 277 278 277 321 322 315 316 313 307 316 293 287 282 233 219 269 143 148 146 147 156 164 165 170
295 298 305 294 298 301 306 304 305 309 309 310 313 308 280 295 289 271 275 283 264 254 261 274 297 278 279 271 308 307 311 282 266 268 262 190 235 142 158 154 158 164 168 173 180
300 294 297 288 289 296 295 302 304 304 303 302 296 311 281 285 270 309 265 274 275 246 260 255 279 258 278 257 287 251 245 257 265 238 231 182 219 163 169 163 164 167 171 174 174
293 283 284 293 292 292 291 289 300 297 294 290 267 277 265 280 285 257 228 244 273 276 251 233 239 228 303 154 232 242 238 252 251 258 227 222 205 151 172 171 170 173 174 178 178
270 267 265 272 278 284 290 300 303 303 268 222 263 229 283 255 311 282 235 250 256 260 259 251 196 221 230 221 231 246 266 269 268 282 306 245 198 166 176 173 172 175 180 183 184
272 271 274 274 279 287 285 277 255 321 292 268 262 259 258 264 283 266 250 256 234 239 256 263 246 234 243 247 252 257 255 267 276 296 303 284 192 184 180 187 184 185 182 183 181
282 289 279 279 294 303 298 303 283 304 280 280 256 248 248 236 241 251 251 253 250 247 252 256 258 272 245 247 253 281 276 276 280 297 290 272 254 227 197 195 194 190 188 184 182
265 268 270 279 311 337 298 336 309 289 279 265 231 249 236 229 259 246 246 239 249 247 255 247 257 261 269 265 250 247 260 289 281 290 271 182 246 249 211 197 197 193 188 182 183
248 251 249 248 225 207 297 248 185 264 303 269 181 138 158 172 234 348 240 229 232 242 242 240 239 253 253 263 271 270 226 254 264 285 323 284 270 233 232 201 197 200 189 184 182
248 238 230 233 234 261 286 271 292 23 249 267 148 154 145 201 217 253 130 217 232 251 242 254 261 267 252 260 255 250 256 255 254 252 260 196 240 239 232 238 206 199 188 179 177
241 241 226 210 206 240 256 229 271 204 278 233 306 17 345 285 303 250 251 221 185 214 256 264 259 252 253 269 272 273 175 262 297 232 250 196 227 243 259 234 219 190 186 174 174
261 244 229 219 216 218 216 98 222 248 237 296 316 327 325 307 320 301 328 269 251 255 250 260 274 230 218 227 239 225 210 178 205 224 275 216 238 255 288 266 207 188 178 169 170
264 254 247 224 213 229 179 204 212 196 258 313 321 312 301 338 329 323 264 276 272 8 331 296 262 268 255 234 227 214 224 213 239 256 306 230 296 283 120 45 50 163 161 166 171
257 263 260 228 211 212 196 236 242 235 290 314 295 288 301 314 318 327 355 13 349 28 16 328 303 273 279 297 279 218 201 226 218 228 239 252 248 245 260 185 101 57 169 162 163
235 254 250 189 196 193 218 231 251 260 276 290 288 300 298 302 308 308 285 319 22 353 8 26 303 321 333 255 251 308 205 210 173 200 231 248 255 221 183 178 149 128 149 155 160
221 235 200 185 173 202 229 224 234 267 285 295 293 271 273 282 288 280 278 282 302 321 318 3 278 276 250 286 298 345 318 250 188 247 221 223 238 113 124 145 158 162 165 171 173
231 252 239 195 210 222 266 258 263 267 265 277 275 281 283 286 283 266 272 283 276 20 318 16 269 306 307 284 307 339 46 15 342 38 236 240 261 93 88 96 195 183 171 175 177
260 255 240 212 237 121 231 260 277 288 280 262 269 274 278 283 276 278 278 280 304 305 232 192 199 239 269 295 296 295 315 323 314 266 309 254 295 288 299 311 235 204 187 184 177
230 230 223 176 245 213 193 276 276 277 250 306 293 288 301 303 315 283 282 300 289 295 172 218 239 230 247 253 261 259 264 296 292 286 237 276 263 278 289 294 284 225 183 173 171
220 208 259 285 284 212 220 239 249 266 274 280 269 264 264 255 248 288 294 289 287 293 170 246 274 221 258 269 272 270 258 222 250 269 272 261 262 256 256 262 281 187 176 179 172
239 248 310 269 297 279 251 256 252 258 268 274 283 271 267 262 262 271 275 271 252 263 270 181 233 232 270 272 299 264 236 234 238 243 244 252 249 265 251 245 261 241 192 192 187
Height
1538 1539 1539 1538 1538 1537 1536 1534 1533 1531 1529 1527 1524 1521 1520 1515 1511 1509 1508 1508 1508 1507 1505 1504 1501 1500 1498 1498 1497 1495 1504 1508 1498 1489 1477 1470 1474 1479 1486 1488 1494 1498 1501 1508 1519
1537 1537 1537 1537 1536 1535 1534 1533 1532 1529 1528 1525 1522 1520 1518 1514 1509 1505 1505 1506 1506 1506 1505 1503 1501 1500 1500 1496 1494 1493 1503 1497 1486 1481 1475 1471 1474 1479 1488 1494 1501 1502 1506 1512 1518
1536 1535 1535 1535 1534 1533 1532 1531 1530 1528 1527 1524 1520 1518 1516 1512 1510 1506 1506 1506 1505 1504 1503 1502 1501 1501 1499 1496 1490 1489 1494 1488 1483 1482 1480 1475 1477 1480 1486 1497 1498 1500 1506 1511 1517
1534 1533 1533 1533 1532 1532 1531 1530 1529 1527 1525 1522 1519 1516 1514 1512 1514 1506 1506 1504 1504 1503 1502 1500 1500 1499 1498 1497 1488 1491 1482 1484 1481 1480 1479 1479 1477 1484 1484 1486 1494 1501 1506 1510 1514
1531 1531 1530 1531 1530 1530 1529 1528 1527 1524 1523 1521 1517 1515 1512 1510 1507 1505 1503 1502 1501 1501 1500 1499 1499 1498 1497 1492 1488 1485 1479 1479 1480 1478 1478 1478 1481 1482 1487 1486 1496 1504 1510 1511 1512
1528 1528 1528 1528 1528 1527 1527 1526 1525 1522 1521 1519 1516 1513 1512 1509 1502 1502 1502 1500 1499 1500 1499 1498 1497 1495 1493 1491 1491 1484 1481 1479 1478 1478 1475 1478 1484 1479 1494 1491 1496 1503 1509 1511 1512
1525 1525 1525 1526 1526 1525 1524 1524 1522 1520 1519 1518 1514 1511 1509 1501 1499 1498 1497 1498 1497 1498 1497 1496 1495 1494 1493 1491 1487 1484 1483 1478 1476 1476 1476 1476 1481 1486 1486 1491 1496 1503 1507 1511 1512
1520 1523 1522 1523 1523 1523 1521 1521 1520 1517 1516 1516 1512 1509 1501 1498 1495 1492 1492 1493 1493 1493 1495 1494 1494 1493 1493 1491 1486 1488 1485 1491 1476 1475 1473 1476 1487 1483 1484 1487 1493 1498 1503 1507 1511
1517 1520 1519 1520 1520 1519 1518 1516 1516 1512 1511 1512 1510 1507 1496 1493 1490 1489 1489 1491 1491 1491 1492 1492 1493 1492 1491 1492 1497 1488 1501 1491 1480 1469 1470 1473 1478 1472 1480 1483 1488 1493 1499 1504 1508
1513 1516 1516 1515 1516 1514 1514 1511 1510 1508 1506 1506 1506 1508 1495 1490 1487 1486 1487 1488 1490 1490 1490 1490 1491 1491 1490 1494 1504 1495 1492 1482 1480 1464 1464 1468 1469 1468 1474 1478 1482 1488 1494 1499 1503
1512 1512 1513 1514 1513 1512 1511 1510 1509 1505 1502 1500 1499 1492 1486 1486 1488 1487 1486 1487 1488 1488 1489 1486 1493 1495 1487 1484 1481 1480 1480 1480 1470 1460 1462 1456 1457 1465 1468 1475 1480 1484 1488 1492 1497
1510 1510 1510 1511 1511 1511 1510 1510 1507 1509 1497 1493 1492 1489 1483 1483 1485 1481 1486 1486 1484 1486 1484 1487 1488 1478 1475 1473 1474 1475 1477 1473 1463 1456 1457 1455 1454 1460 1463 1464 1465 1470 1478 1483 1491
1509 1509 1510 1509 1510 1509 1509 1507 1504 1505 1500 1487 1480 1473 1468 1474 1474 1473 1480 1479 1479 1481 1480 1483 1475 1468 1471 1471 1472 1472 1475 1472 1470 1459 1453 1458 1460 1454 1457 1459 1465 1468 1471 1477 1481
1505 1506 1508 1508 1512 1508 1507 1507 1505 1506 1504 1479 1463 1459 1459 1466 1467 1467 1468 1475 1475 1474 1474 1471 1468 1469 1467 1468 1468 1474 1464 1464 1464 1468 1475 1455 1473 1456 1450 1456 1458 1460 1465 1469 1475
1501 1503 1504 1506 1507 1508 1507 1506 1504 1506 1518 1460 1453 1453 1453 1461 1456 1455 1453 1467 1466 1468 1474 1464 1462 1465 1465 1463 1461 1463 1457 1462 1461 1468 1470 1463 1474 1455 1444 1449 1448 1451 1456 1459 1464
1498 1499 1502 1505 1505 1507 1505 1505 1506 1513 1501 1461 1450 1451 1455 1457 1455 1454 1455 1457 1461 1464 1463 1460 1461 1459 1456 1454 1452 1451 1456 1457 1460 1468 1472 1464 1469 1450 1443 1434 1435 1438 1446 1450 1456
1494 1496 1499 1501 1502 1504 1504 1505 1512 1516 1470 1456 1454 1456 1460 1455 1455 1454 1455 1458 1465 1472 1469 1459 1453 1449 1453 1454 1449 1452 1460 1484 1489 1488 1473 1450 1459 1435 1426 1420 1417 1429 1438 1444 1449
1491 1492 1494 1497 1499 1500 1504 1508 1511 1487 1477 1455 1460 1458 1463 1462 1457 1454 1456 1459 1454 1457 1459 1461 1455 1441 1437 1437 1446 1445 1456 1480 1485 1483 1466 1442 1451 1435 1418 1415 1408 1412 1423 1434 1443
1488 1489 1489 1492 1496 1498 1503 1503 1489 1481 1476 1474 1468 1466 1464 1460 1462 1458 1456 1461 1459 1460 1467 1455 1440 1431 1429 1429 1433 1443 1444 1442 1454 1450 1466 1454 1435 1419 1416 1416 1415 1417 1423 1430 1436
1486 1487 1484 1489 1494 1497 1501 1487 1476 1474 1476 1474 1479 1473 1471 1467 1468 1468 1466 1458 1464 1465 1467 1461 1451 1436 1427 1425 1423 1428 1428 1451 1450 1464 1469 1445 1446 1441 1422 1421 1420 1421 1425 1431 1436
1485 1484 1482 1484 1489 1494 1491 1484 1475 1477 1483 1482 1477 1478 1475 1473 1473 1471 1467 1467 1467 1463 1468 1469 1469 1448 1437 1431 1430 1431 1426 1431 1432 1441 1451 1461 1449 1418 1418 1416 1421 1423 1426 1431 1436
1483 1484 1479 1481 1488 1485 1482 1476 1478 1477 1479 1479 1478 1475 1475 1476 1475 1474 1469 1468 1465 1465 1467 1468 1472 1457 1446 1431 1426 1428 1425 1427 1445 1443 1451 1442 1430 1416 1414 1416 1418 1422 1425 1429 1433
1480 1479 1479 1480 1480 1481 1477 1475 1477 1475 1479 1477 1476 1474 1474 1474 1475 1467 1465 1465 1466 1467 1472 1472 1472 1460 1439 1431 1424 1436 1439 1445 1442 1445 1438 1446 1434 1416 1417 1419 1422 1423 1425 1430 1435
1480 1478 1477 1478 1476 1477 1479 1477 1477 1472 1471 1473 1473 1473 1472 1471 1467 1464 1464 1463 1463 1465 1469 1472 1472 1467 1458 1455 1453 1458 1452 1451 1459 1459 1450 1445 1433 1422 1423 1421 1423 1421 1420 1422 1425
1477 1475 1472 1477 1476 1474 1478 1476 1473 1471 1469 1471 1471 1472 1474 1476 1471 1466 1463 1461 1460 1460 1462 1472 1464 1461 1449 1444 1446 1445 1447 1453 1455 1455 1451 1437 1440 1419 1426 1426 1420 1415 1417 1420 1424
1474 1474 1471 1470 1470 1469 1474 1472 1470 1466 1470 1465 1469 1467 1469 1473 1474 1470 1471 1469 1465 1458 1461 1465 1456 1453 1450 1451 1445 1441 1442 1448 1452 1448 1437 1429 1423 1415 1418 1417 1418 1413 1413 1419 1420
1472 1472 1474 1468 1467 1470 1464 1465 1464 1464 1462 1463 1462 1463 1462 1461 1461 1462 1462 1462 1460 1460 1457 1458 1461 1455 1448 1443 1443 1442 1435 1431 1428 1426 1425 1424 1415 1404 1405 1407 1408 1411 1407 1408 1412